Hourly Data Report for May 15, 2022

VICTORIA UNIVERSITY CS
BRITISH COLUMBIA
Current Station Operator: ECCC - MSC

48°27'25.200" N
123°18'16.600" W
60.10 m
1018598
71783
WYJ

Download Data

Hourly Data (May 2022)
Hourly Data Report for May 15, 2022
TIME
LST
Temp Definition
°C
Dew Point Definition
°C
Rel Hum Definition
%
Precip. Amount Definition
mm

Wind Dir Definition
10's deg

Wind Spd Definition
km/h
Visibility Definition
km
Stn Press Definition
kPa
Hmdx Definition


Wind Chill Definition


Weather Definition


00:00 9.1 8.3 95 0.0 14 1   101.13     LegendNANA
01:00 9.4 8.5 94 0.0 0 1   101.09     LegendNANA
02:00 9.1 8.4 96 0.0 1 4   100.99     LegendNANA
03:00 9.1 8.4 96 0.0 10 3   100.97     LegendNANA
04:00 8.9 8.3 96 0.0 4 1   100.90     LegendNANA
05:00 9.2 8.5 96 0.2 36 4   100.85     LegendNANA
06:00 9.7 8.9 95 0.0 1 6   100.80     LegendNANA
07:00 10.4 9.3 93 0.0 1 7   100.76     LegendNANA
08:00 10.2 9.4 95 0.0 36 10   100.70     LegendNANA
09:00 10.2 9.7 97 1.6 36 7   100.64     LegendNANA
10:00 10.6 10.1 97 1.8 36 5   100.62     LegendNANA
11:00 11.1 10.4 95 0.8 2 5   100.59     LegendNANA
12:00 11.0 10.5 97 0.5 1 7   100.55     LegendNANA
13:00 11.8 11.3 97 0.2 3 4   100.45     LegendNANA
14:00 11.9 11.2 96 0.0 5 2   100.38     LegendNANA
15:00 12.6 11.9 95 0.0 1 6   100.32     LegendNANA
16:00 12.5 11.7 95 1.2 9 7   100.28     LegendNANA
17:00 12.6 12.0 96 2.2 5 3   100.30     LegendNANA
18:00 11.9 11.4 97 0.0 2 3   100.28     LegendNANA
19:00 11.8 11.3 96 0.0 0 1   100.32     LegendNANA
20:00 11.5 11.1 97 0.2 0 1   100.38     LegendNANA
21:00 11.2 10.9 98 0.0 26 2   100.44     LegendNANA
22:00 11.1 10.8 98 0.0 26 3   100.44     LegendNANA
23:00 10.0 9.7 98 0.0 17 2   100.47     LegendNANA

Notes on Data Quality.

Legend

  • E = Estimated
  • M = Missing
  • NA = Not Available*
  • [empty] = Indicates an unobserved value
Date modified: